Regional Weather Roundup
Issued by NWS

Home | Current Version | Previous Version | Graphics & Text | Print | Product List | Glossary On
Versions: 1 2 3 4 5 6 7 8 9 10 11 12 13 14 15 16 17 18 19 20 21 22 23 24 25 26 27 28 29 30 31 32 33 34 35 36 37 38 39 40 41 42 43 44 45 46 47 48 49 50
906
ASUS43 KDMX 190006
RWRIA

WEATHER ROUNDUP FOR IOWA
NATIONAL WEATHER SERVICE DES MOINES IA
700 PM CDT FRI AUG 18 2017

NOTE: "FAIR" INDICATES FEW OR NO CLOUDS BELOW 12,000 FEET WITH NO
SIGNIFICANT WEATHER AND/OR OBSTRUCTIONS TO VISIBILITY.

* - THESE STATIONS ARE NOT NWS STATIONS...THUS NOT UNDER NWS
QUALITY CONTROL.  THEY ALSO DO NOT REPORT WEATHER SUCH
AS PRECIPITATION OR FOG.

IAZ001>003-012>014-020>022-031>034-043>046-190100-
   NORTHWEST IOWA

CITY           SKY/WX    TMP DP  RH WIND       PRES   REMARKS
CARROLL *      SUNNY     77  70  78 CALM      29.89S
CHEROKEE *     MOSUNNY   78  66  64 SE5       29.89S HX  80
DENISON *      SUNNY     79  66  65 CALM      29.91R HX  81
LE MARS *      SUNNY     81  66  61 SW5       29.88S HX  83
ORANGE CITY *  SUNNY     79  68  69 W6        29.89S HX  81
SHELDON *      MOSUNNY   75  64  69 S7        29.87F
SIOUX CITY     SUNNY     82  69  64 W5        29.88S HX  85
6HR MIN TEMP:  79; 6HR MAX TEMP:  83;

SPENCER        MOSUNNY   76  62  62 S7        29.90R
6HR MIN TEMP:  75; 6HR MAX TEMP:  79;

STORM LAKE *   MOSUNNY   75  66  73 SE3       29.91R
$$

IAZ055>058-069>071-079>083-090>094-190100-
   SOUTHWEST IOWA

CITY           SKY/WX    TMP DP  RH WIND       PRES   REMARKS
ATLANTIC *     SUNNY     81  66  61 CALM      29.89S HX  83
AUDUBON *      SUNNY     81  70  69 CALM      29.91S HX  84
CLARINDA *     SUNNY     82  66  57 W3        29.91S HX  85
COUNCIL BLFS * SUNNY     82  66  57 SW8       29.89S HX  85
CRESTON *      SUNNY     82  63  51 W8        29.91S HX  83
HARLAN  *      SUNNY     81  68  65 CALM      29.92F HX  83
LAMONI         SUNNY     82  64  54 W5        29.89S HX  83
6HR MIN TEMP:  79; 6HR MAX TEMP:  90;

RED OAK *      SUNNY     82  68  61 SW5       29.89S HX  85
SHENANDOAH *   SUNNY     82  68  61 MISG      29.90S HX  85
$$

IAZ047>049-059>061-072>074-084-190100-
   CENTRAL IOWA

CITY           SKY/WX    TMP DP  RH WIND       PRES   REMARKS
AMES           SUNNY     79  67  66 E5        29.89S HX  81
6HR MIN TEMP:  78; 6HR MAX TEMP:  83;

ANKENY *       SUNNY     81  64  57 N6        29.89R HX  82
BOONE *        SUNNY     77  64  65 NE6       29.89S
CHARITON *     SUNNY     84  63  48 W6        29.87S HX  85
DES MOINES     MOSUNNY   85  61  44 NW5       29.86S HX  85
6HR MIN TEMP:  83; 6HR MAX TEMP:  89;

GRINNELL*      SUNNY     76  66  71 N6        29.91R
KNOXVILLE *    SUNNY     82  66  57 NE7G13    29.86R HX  85
MARSHALLTOWN   SUNNY     76  65  68 NE7       29.89S
6HR MIN TEMP:  75; 6HR MAX TEMP:  80;

NEWTON *       SUNNY     79  68  69 NE8       29.88S HX  81
PELLA *        SUNNY     82  67  60 N3        29.88S HX  84
PERRY *          N/A     80  63  54 CALM      29.89S HX  82
$$

IAZ004>006-015-016-023>025-035-036-190100-
   NORTH CENTRAL IOWA

CITY           SKY/WX    TMP DP  RH WIND       PRES   REMARKS
ALGONA *       PTSUNNY   75  63  64 CALM      29.91S
CLARION *      SUNNY     75  64  69 N3        29.91R
ESTHERVILLE    MOSUNNY   72  65  78 SE5       29.90R
6HR MIN TEMP:  71; 6HR MAX TEMP:  76;

FORT DODGE *   SUNNY     75  61  60 NE5       29.91S
MASON CITY     SUNNY     70  61  73 NE5       29.93S
6HR MIN TEMP:  70; 6HR MAX TEMP:  77;

FOREST CITY *    N/A     70  61  73 E6        29.93R
WEBSTER CITY * SUNNY     77  63  61 CALM      29.89R
IOWA FALLS *     N/A     76  62  61 NE3       29.92S
$$

IAZ007>011-017>019-026>030-037>042-050>054-066-190100-
   NORTHEAST IOWA

CITY           SKY/WX    TMP DP  RH WIND       PRES   REMARKS
CEDAR RAPIDS   SUNNY     78  62  57 N6        29.88S HX  80
6HR MIN TEMP:  76; 6HR MAX TEMP:  81;

CHARLES CITY * SUNNY     70  59  68 CALM      29.93R
CLINTON *      PTCLDY    74  64  71 NW7       29.89S
DECORAH *      SUNNY     70  61  73 CALM      29.91S
DUBUQUE        CLEAR     71  59  65 N9        29.91S
6HR MIN TEMP:  71; 6HR MAX TEMP:  77;

MONTICELLO *   PTSUNNY   73  61  64 VRB5G13   29.90R
OELWEIN *      SUNNY     72  63  73 NE6       29.92S
WATERLOO       SUNNY     73  61  65 NE6       29.89S
6HR MIN TEMP:  73; 6HR MAX TEMP:  79;

$$

IAZ064-065-067-068-078-190100-
   EAST CENTRAL IOWA

CITY           SKY/WX    TMP DP  RH WIND       PRES   REMARKS
DAVENPORT      CLEAR     76  65  68 N5        29.90S
6HR MIN TEMP:  76; 6HR MAX TEMP:  82;

IOWA CITY      MOSUNNY   80  64  58 N7        29.89S HX  82
6HR MIN TEMP:  78; 6HR MAX TEMP:  83;

MT. PLEASANT * PTSUNNY   79  64  61 N9        29.85S HX  81
MUSCATINE *    CLEAR     79  68  69 N6        29.87S HX  81
QUAD CITIES    CLEAR     80  64  58 NW6       29.87R HX  82
6HR MIN TEMP:  80; 6HR MAX TEMP:  84;

$$

IAZ062-063-075>077-085>089-095>099-190100-
   SOUTHEAST IOWA

CITY           SKY/WX    TMP DP  RH WIND       PRES   REMARKS
BURLINGTON     TSTM      79  72  79 SE3       29.85S HX  82
6HR MIN TEMP:  77; 6HR MAX TEMP:  84; 6HR PCP:  0.04;

FAIRFIELD *    CLOUDY    81  68  65 N12       29.86S HX  83
FORT MADISON * CLOUDY    66  64  94 S5        29.86S
KEOKUK *       CLOUDY    72  66  83 SW15G31   29.85S HAZE
OSKALOOSA *      N/A     80  67  65 NE6       29.87S HX  82
CENTERVILLE *    N/A     82  66  57 CALM      29.90R HX  85
OTTUMWA        PTSUNNY   83  66  56 NE7       29.86S HX  85
6HR MIN TEMP:  81; 6HR MAX TEMP:  91;

WASHINGTON *   CLOUDY    77  70  78 N7        29.88S
$$

ABBREVIATIONS USED IN REMARKS
   TC - TEMPERATURES IN CELSIUS
  WCI - WIND CHILL INDEX
   HX - HEAT INDEX
  VSB - VISIBILITY
$$





USA.gov is the U.S. government's official web portal to all federal, state and local government web resources and services.